Location: Godzisko
(49.9648°N, 19.4576°E)
Time: 00:25:53
(UTC+00:00)

Meteor 1-22 Rocket - Pass Details

Date: 20 April 2021
Orbit: 786 x 941 km, 81.2° (Epoch: 08 May)

Event Time Altitude Azimuth Distance (km) Brightness Sun altitude
Rises 02:31:08 0° 346° (NNW) 3,367 7.6 -10.7°
Reaches altitude 10° 02:33:30 10° 345° (NNW) 2,450 6.8 -10.4°
Maximum altitude 02:39:02 74° 261° (W) 892 4.2 -9.6°
Drops below altitude 10° 02:44:46 10° 177° (S) 2,537 6.4 -8.8°
Sets 02:47:16 0° 176° (S) 3,494 7.1 -8.4°
